Location: Lichtensteig
(47.3376°N, 9.0841°E)
Time: 02:28:41
(UTC+00:00)

YAOGAN 1 - Pass Details

Date: 03 March 2021
Orbit: 618 x 620 km, 97.9° (Epoch: 12 April)

Event Time Altitude Azimuth Distance (km) Brightness Sun altitude
Rises 17:37:28 0° 152° (SSE) 2,886 5.7 -5.1°
Reaches altitude 10° 17:39:40 10° 148° (SSE) 1,985 4.9 -5.5°
Maximum altitude 17:43:52 53° 72° (ENE) 768 2.7 -6.2°
Drops below altitude 10° 17:48:06 10° 355° (N) 2,000 5.2 -6.9°
Sets 17:50:20 0° 351° (N) 2,911 6.1 -7.3°
